Location: Brunsen
(51.8651°N, 9.8610°E)
Time: 16:12:26
(UTC+00:00)

ALOS - Pass Details

Date: 23 May 2024
Orbit: 672 x 676 km, 98.0° (Epoch: 24 June)

Event Time Altitude Azimuth Distance (km) Brightness Sun altitude
Rises 01:20:36 0° 22° (NNE) 3,042 7.6 -12.6°
Reaches altitude 10° 01:23:09 10° 35° (NE) 2,121 6.3 -12.5°
Maximum altitude 01:27:07 27° 93° (E) 1,285 4.0 -12.1°
Drops below altitude 10° 01:31:02 10° 152° (SSE) 2,104 4.5 -11.8°
Enters shadow 01:32:43 - 161° (SSE) 2,702 5.0 -11.7°
